Overview Statistics Trail Chart Weather Telemetry Raw packets
 

This is the latest recevied weather packets stored in our database for station/object KQ4KX. If no packets are shown the sender has not sent any weather packets the latest 10 day(s).

<< 8 9 10 11 12 13 14 >>
Time Temp. Humidity Pressure Rain* Wind** Luminosity Snow
1788637175 33.89° C 68% 1012.4 hPa 0 mm - - -
1788636845 33.89° C 68% 1012.6 hPa 0 mm - - -
1788636516 33.89° C 68% 1012.7 hPa 0 mm - - -
1788636349 33.33° C 68% 1012.7 hPa 0 mm - - -
1788636185 33.33° C 68% 1012.7 hPa 0 mm - - -
1788635806 33.89° C 67% 1012.9 hPa 0 mm - - -
1788635555 33.89° C 67% 1012.9 hPa 0 mm - - -
1788635500 34.44° C 67% 1012.9 hPa 0 mm - - -
1788635255 34.44° C 67% 1012.9 hPa 0 mm - - -
1788635184 34.44° C 68% 1012.9 hPa 0 mm - - -
1788634925 34.44° C 68% 1012.9 hPa 0 mm - - -
1788634625 34.44° C 68% 1013 hPa 0 mm - - -
1788634295 33.89° C 69% 1013.1 hPa 0 mm - - -
1788633995 33.89° C 66% 1013.1 hPa 0 mm - - -
1788633665 33.89° C 70% 1013 hPa 0 mm - - -
1788633335 33.33° C 73% 1013.2 hPa 0 mm - - -
1788632705 32.22° C 75% 1013.1 hPa 0 mm - - -
1788632405 32.22° C 72% 1013.2 hPa 0 mm - - -
1788632105 32.78° C 72% 1013.3 hPa 0 mm - - -
1788631775 33.89° C 68% 1013.3 hPa 0 mm - - -
1788631475 33.33° C 70% 1013.3 hPa 0 mm - - -
1788631332 33.33° C 71% 1013.3 hPa 0 mm - - -
1788631175 33.33° C 71% 1013.3 hPa 0 mm - - -
1788630845 32.78° C 72% 1013.4 hPa 0 mm - - -
1788630185 32.22° C 72% 1013.5 hPa 0 mm - - -

* Rain latest hour (hover to see other rain measurements)
** Current wind speed in m/s (hover to see current wind gust speed)